Satellite-Ground Cal/Val Region Overpasses Predictions

Prediction of Satellite NPP Overpassing Cal/Val Region: PacNW

Region Location: (Latitude: 10.00, Longitude: 139.50) to (Latitude: 22.70, Longitude: 165.60).

Table of predicted overpasses for the next 14.0 days since TLE Epoch: 9/14/2018
Interval Starting Time Starting Location Ending Time Ending Location
1 09/15/2018 02:58:45 ( 10.06, 155.15) 09/15/2018 03:02:20 ( 22.68, 152.14)
2 09/15/2018 15:30:38 ( 22.69, 152.40) 09/15/2018 15:34:14 ( 10.01, 149.38)
3 09/16/2018 02:39:44 ( 10.05, 159.91) 09/16/2018 02:43:19 ( 22.67, 156.90)
4 09/16/2018 15:11:36 ( 22.69, 157.16) 09/16/2018 15:15:12 ( 10.01, 154.14)
5 09/17/2018 02:20:42 ( 10.04, 164.66) 09/17/2018 02:24:17 ( 22.67, 161.66)
6 09/17/2018 14:52:35 ( 22.70, 161.91) 09/17/2018 14:56:11 ( 10.02, 158.90)
7 09/18/2018 03:43:11 ( 10.04, 144.05) 09/18/2018 03:46:46 ( 22.67, 141.04)
8 09/18/2018 14:34:48 ( 18.30, 165.59) 09/18/2018 14:37:09 ( 10.02, 163.65)
9 09/18/2018 16:15:03 ( 22.70, 141.30) 09/18/2018 16:17:09 ( 15.31, 139.50)
10 09/19/2018 03:24:09 ( 10.04, 148.80) 09/19/2018 03:27:44 ( 22.66, 145.80)
11 09/19/2018 15:56:03 ( 22.65, 146.04) 09/19/2018 15:59:38 ( 10.03, 143.04)
12 09/20/2018 03:05:08 ( 10.04, 153.56) 09/20/2018 03:08:43 ( 22.66, 150.56)
13 09/20/2018 15:37:01 ( 22.65, 150.80) 09/20/2018 15:40:36 ( 10.03, 147.79)
14 09/21/2018 02:46:06 ( 10.03, 158.32) 09/21/2018 02:49:41 ( 22.65, 155.32)
15 09/21/2018 15:18:00 ( 22.65, 155.56) 09/21/2018 15:21:35 ( 10.03, 152.55)
16 09/22/2018 02:27:05 ( 10.03, 163.08) 09/22/2018 02:30:40 ( 22.65, 160.07)
17 09/22/2018 14:58:58 ( 22.66, 160.32) 09/22/2018 15:02:33 ( 10.04, 157.31)
18 09/23/2018 02:10:45 ( 19.54, 165.60) 09/23/2018 02:11:38 ( 22.65, 164.83)
19 09/23/2018 03:49:33 ( 10.03, 142.46) 09/23/2018 03:53:04 ( 22.42, 139.51)
20 09/23/2018 14:39:57 ( 22.66, 165.07) 09/23/2018 14:43:32 ( 10.04, 162.07)
21 09/23/2018 16:21:27 ( 22.66, 139.70) 09/23/2018 16:21:40 ( 21.90, 139.51)
22 09/24/2018 03:30:32 ( 10.03, 147.22) 09/24/2018 03:34:07 ( 22.65, 144.21)
23 09/24/2018 16:02:26 ( 22.66, 144.46) 09/24/2018 16:06:01 ( 10.04, 141.45)
24 09/25/2018 03:11:30 ( 10.02, 151.98) 09/25/2018 03:15:05 ( 22.65, 148.97)
25 09/25/2018 15:43:24 ( 22.66, 149.21) 09/25/2018 15:46:59 ( 10.04, 146.21)
26 09/26/2018 02:52:29 ( 10.02, 156.73) 09/26/2018 02:56:04 ( 22.64, 153.73)
27 09/26/2018 15:24:23 ( 22.67, 153.97) 09/26/2018 15:27:58 ( 10.05, 150.97)
28 09/27/2018 02:33:27 ( 10.02, 161.49) 09/27/2018 02:37:02 ( 22.64, 158.49)
29 09/27/2018 15:05:21 ( 22.67, 158.73) 09/27/2018 15:08:56 ( 10.05, 155.72)
30 09/28/2018 02:15:14 ( 12.84, 165.60) 09/28/2018 02:18:02 ( 22.70, 163.23)
31 09/28/2018 03:55:56 ( 10.02, 140.87) 09/28/2018 03:57:36 ( 15.90, 139.51)


NCC Satellite Cal/Val Overpasses Prediction Service
